sat.trackr.live / text

‹ back to catalog

STARLINK-32856

NORAD 62819 · 2025-018P

PAYLOAD ACTIVE UNKNOWN

§ Identity

Operator
Country
US
Launch date
2025-01-24
Launch site
AFWTR
Launch vehicle
Mass (kg)
RCS (m²)

Purposes: comms

External: N2YO · Heavens-Above · Gunter

§ Orbital elements

Epoch: 2026-09-21T20:03:04.796352Z

Period
93.85 min
Inclination
53.1585°
Eccentricity
0.0001137
Mean motion
15.34400764 rev/d
Perigee alt
461.9 km
Apogee alt
463.5 km
Semi-major
6,840.8 km
B*
5.0928e-4
RAAN
115.3691°
Arg perigee
95.4055°
Mean anomaly
264.7078°
Rev number
9,325

§ Raw data

STARLINK-328561 62819U 25018P   26264.83547218  .00016870  00000+0  50928-3 0  99982 62819  53.1585 115.3691 0001137  95.4055 264.7078 15.34400764 93258

JSON: /api/v1/satellites/62819 · /tle

For live sub-satellite position, see the globe view (requires WebGL).

§ Visibility from observer

Set your observer location to see the next 7 days of passes ≥ 10°. The values pass through the URL so the page stays shareable.

No JS? Fill the form by hand. The geolocation button needs JavaScript.